owner,sensor,date,latitude,longitude,vertical_datum,mass_concentration_of_oxygen_in_sea_water,qcFlag 
SCCF RECON,ioos:station:SCCF:11:1,2014-10-01T00:00:00Z,26.4679,-82.0631,2.05,6.45,1111122 
SCCF RECON,ioos:station:SCCF:11:1,2014-10-01T01:00:00Z,26.4679,-82.0631,1.996,7.1,1111122 
SCCF RECON,ioos:station:SCCF:11:1,2014-10-01T02:00:00Z,26.4679,-82.0631,1.94,7.21,1111122 
SCCF RECON,ioos:station:SCCF:11:1,2014-10-01T03:00:00Z,26.4679,-82.0631,1.91,6.58,1111122 
SCCF RECON,ioos:station:SCCF:11:1,2014-10-01T04:00:00Z,26.4679,-82.0631,1.9,6.75,1111122 
SCCF RECON,ioos:station:SCCF:11:1,2014-10-01T05:00:00Z,26.4679,-82.0631,1.92,6.25,1111122 
SCCF RECON,ioos:station:SCCF:11:1,2014-10-01T06:00:00Z,26.4679,-82.0631,1.972,6.48,1111122 
SCCF RECON,ioos:station:SCCF:11:1,2014-10-01T07:00:00Z,26.4679,-82.0631,2.04,6.7,1111122 
SCCF RECON,ioos:station:SCCF:11:1,2014-10-01T08:00:00Z,26.4679,-82.0631,2.11,6.31,1111122 
SCCF RECON,ioos:station:SCCF:11:1,2014-10-01T09:00:00Z,26.4679,-82.0631,2.16,5.61,1111122 
SCCF RECON,ioos:station:SCCF:11:1,2014-10-01T10:00:00Z,26.4679,-82.0631,2.2,5.82,1111122 
SCCF RECON,ioos:station:SCCF:11:1,2014-10-01T11:00:00Z,26.4679,-82.0631,2.2,5.67,1111122 
SCCF RECON,ioos:station:SCCF:11:1,2014-10-01T12:00:00Z,26.4679,-82.0631,2.14,5.77,1111122 
SCCF RECON,ioos:station:SCCF:11:1,2014-10-01T13:00:00Z,26.4679,-82.0631,2.02,5.3,1111122 
SCCF RECON,ioos:station:SCCF:11:1,2014-10-01T14:00:00Z,26.4679,-82.0631,1.9,4.74,1111122 
SCCF RECON,ioos:station:SCCF:11:1,2014-10-01T15:00:00Z,26.4679,-82.0631,1.77,4.95,1111122 
SCCF RECON,ioos:station:SCCF:11:1,2014-10-01T16:00:00Z,26.4679,-82.0631,1.67,5.13,1111122 
SCCF RECON,ioos:station:SCCF:11:1,2014-10-01T17:00:00Z,26.4679,-82.0631,1.59,5.35,1111122 
SCCF RECON,ioos:station:SCCF:11:1,2014-10-01T18:00:00Z,26.4679,-82.0631,1.578,6.93,1111122 
SCCF RECON,ioos:station:SCCF:11:1,2014-10-01T19:00:00Z,26.4679,-82.0631,1.65,7.28,1111122 
SCCF RECON,ioos:station:SCCF:11:1,2014-10-01T20:00:00Z,26.4679,-82.0631,1.76,7.53,1111122 
SCCF RECON,ioos:station:SCCF:11:1,2014-10-01T21:00:00Z,26.4679,-82.0631,1.848,7.03,1111122 
SCCF RECON,ioos:station:SCCF:11:1,2014-10-01T22:00:00Z,26.4679,-82.0631,1.92,6.36,1111122 
SCCF RECON,ioos:station:SCCF:11:1,2014-10-01T23:00:00Z,26.4679,-82.0631,1.97,7.81,1111122 
SCCF RECON,ioos:station:SCCF:11:1,2014-10-02T00:00:00Z,26.4679,-82.0631,2.01,6.71,1111122 
SCCF RECON,ioos:station:SCCF:11:1,2014-10-02T01:00:00Z,26.4679,-82.0631,2.04,6.93,1111122 
SCCF RECON,ioos:station:SCCF:11:1,2014-10-02T02:00:00Z,26.4679,-82.0631,2.059,6.55,1111122 
SCCF RECON,ioos:station:SCCF:11:1,2014-10-02T03:00:00Z,26.4679,-82.0631,1.99,5.82,1111122 
SCCF RECON,ioos:station:SCCF:11:1,2014-10-02T04:00:00Z,26.4679,-82.0631,1.94,6.67,1111122 
SCCF RECON,ioos:station:SCCF:11:1,2014-10-02T05:00:00Z,26.4679,-82.0631,1.88,5.87,1111122 
SCCF RECON,ioos:station:SCCF:11:1,2014-10-02T06:00:00Z,26.4679,-82.0631,1.89,5.33,1111122 
SCCF RECON,ioos:station:SCCF:11:1,2014-10-02T07:00:00Z,26.4679,-82.0631,1.93,5.68,1111122 
SCCF RECON,ioos:station:SCCF:11:1,2014-10-02T08:00:00Z,26.4679,-82.0631,2.02,4.89,1111122 
SCCF RECON,ioos:station:SCCF:11:1,2014-10-02T09:00:00Z,26.4679,-82.0631,2.083,4.99,1111122 
SCCF RECON,ioos:station:SCCF:11:1,2014-10-02T10:00:00Z,26.4679,-82.0631,2.15,5.09,1111122 
SCCF RECON,ioos:station:SCCF:11:1,2014-10-02T11:00:00Z,26.4679,-82.0631,2.17,4.79,1111122 
SCCF RECON,ioos:station:SCCF:11:1,2014-10-02T12:00:00Z,26.4679,-82.0631,2.18,4.69,1111122 
SCCF RECON,ioos:station:SCCF:11:1,2014-10-02T13:00:00Z,26.4679,-82.0631,2.14,4.4,1111122 
SCCF RECON,ioos:station:SCCF:11:1,2014-10-02T14:00:00Z,26.4679,-82.0631,2.03,5.24,1111122 
SCCF RECON,ioos:station:SCCF:11:1,2014-10-02T15:00:00Z,26.4679,-82.0631,1.9,4.84,1111122 
SCCF RECON,ioos:station:SCCF:11:1,2014-10-02T16:00:00Z,26.4679,-82.0631,1.76,5.13,1111122 
SCCF RECON,ioos:station:SCCF:11:1,2014-10-02T17:00:00Z,26.4679,-82.0631,1.64,5.19,1111122 
SCCF RECON,ioos:station:SCCF:11:1,2014-10-02T18:00:00Z,26.4679,-82.0631,1.55,6.41,1111122 
SCCF RECON,ioos:station:SCCF:11:1,2014-10-02T19:00:00Z,26.4679,-82.0631,1.508,7.58,1111122 
SCCF RECON,ioos:station:SCCF:11:1,2014-10-02T20:00:00Z,26.4679,-82.0631,1.55,7.74,1111122 
SCCF RECON,ioos:station:SCCF:11:1,2014-10-02T21:00:00Z,26.4679,-82.0631,1.67,5.54,1111122 
SCCF RECON,ioos:station:SCCF:11:1,2014-10-02T22:00:00Z,26.4679,-82.0631,1.78,5.78,1111122 
SCCF RECON,ioos:station:SCCF:11:1,2014-10-02T23:00:00Z,26.4679,-82.0631,1.87,7.38,1111122 
SCCF RECON,ioos:station:SCCF:11:1,2014-10-03T00:00:00Z,26.4679,-82.0631,1.95,7.11,1111122 
SCCF RECON,ioos:station:SCCF:11:1,2014-10-03T01:00:00Z,26.4679,-82.0631,2.03,6.5,1111122 
SCCF RECON,ioos:station:SCCF:11:1,2014-10-03T02:00:00Z,26.4679,-82.0631,2.07,6.18,1111122 
SCCF RECON,ioos:station:SCCF:11:1,2014-10-03T03:00:00Z,26.4679,-82.0631,2.06,5.78,1111122 
SCCF RECON,ioos:station:SCCF:11:1,2014-10-03T04:00:00Z,26.4679,-82.0631,1.99,6.33,1111122 
SCCF RECON,ioos:station:SCCF:11:1,2014-10-03T05:00:00Z,26.4679,-82.0631,1.92,6.29,1111122 
SCCF RECON,ioos:station:SCCF:11:1,2014-10-03T06:00:00Z,26.4679,-82.0631,1.85,6.06,1111122 
SCCF RECON,ioos:station:SCCF:11:1,2014-10-03T07:00:00Z,26.4679,-82.0631,1.83,5.59,1111122 
SCCF RECON,ioos:station:SCCF:11:1,2014-10-03T08:00:00Z,26.4679,-82.0631,1.87,5.26,1111122 
SCCF RECON,ioos:station:SCCF:11:1,2014-10-03T09:00:00Z,26.4679,-82.0631,1.93,4.6,1111122 
SCCF RECON,ioos:station:SCCF:11:1,2014-10-03T10:00:00Z,26.4679,-82.0631,2.04,5.05,1111122 
SCCF RECON,ioos:station:SCCF:11:1,2014-10-03T11:00:00Z,26.4679,-82.0631,2.11,4.9,1111122 
SCCF RECON,ioos:station:SCCF:11:1,2014-10-03T12:00:00Z,26.4679,-82.0631,2.16,4.76,1111122 
SCCF RECON,ioos:station:SCCF:11:1,2014-10-03T13:00:00Z,26.4679,-82.0631,2.178,4.83,1111122 
SCCF RECON,ioos:station:SCCF:11:1,2014-10-03T14:00:00Z,26.4679,-82.0631,2.15,4.5,1111122 
SCCF RECON,ioos:station:SCCF:11:1,2014-10-03T15:00:00Z,26.4679,-82.0631,2.06,4.96,1111122 
SCCF RECON,ioos:station:SCCF:11:1,2014-10-03T16:00:00Z,26.4679,-82.0631,1.934,5.39,1111122 
SCCF RECON,ioos:station:SCCF:11:1,2014-10-03T17:00:00Z,26.4679,-82.0631,1.81,5.5,1111122 
SCCF RECON,ioos:station:SCCF:11:1,2014-10-03T18:00:00Z,26.4679,-82.0631,1.66,5.75,1111122 
SCCF RECON,ioos:station:SCCF:11:1,2014-10-03T19:00:00Z,26.4679,-82.0631,1.54,6.45,1111122 
SCCF RECON,ioos:station:SCCF:11:1,2014-10-03T20:00:00Z,26.4679,-82.0631,1.5,8.55,1111122 
SCCF RECON,ioos:station:SCCF:11:1,2014-10-03T21:00:00Z,26.4679,-82.0631,1.525,8.62,1111122 
SCCF RECON,ioos:station:SCCF:11:1,2014-10-03T22:00:00Z,26.4679,-82.0631,1.61,8.15,1111122 
SCCF RECON,ioos:station:SCCF:11:1,2014-10-03T23:00:00Z,26.4679,-82.0631,1.78,5.95,1111122 
SCCF RECON,ioos:station:SCCF:11:1,2014-10-04T00:00:00Z,26.4679,-82.0631,1.92,7.34,1111122 
SCCF RECON,ioos:station:SCCF:11:1,2014-10-04T01:00:00Z,26.4679,-82.0631,2.0,7.41,1111122 
SCCF RECON,ioos:station:SCCF:11:1,2014-10-04T02:00:00Z,26.4679,-82.0631,2.07,7.01,1111122 
SCCF RECON,ioos:station:SCCF:11:1,2014-10-04T03:00:00Z,26.4679,-82.0631,2.1,6.05,1111122 
SCCF RECON,ioos:station:SCCF:11:1,2014-10-04T04:00:00Z,26.4679,-82.0631,2.05,6.38,1111122 
SCCF RECON,ioos:station:SCCF:11:1,2014-10-04T05:00:00Z,26.4679,-82.0631,1.98,6.4,1111122 
SCCF RECON,ioos:station:SCCF:11:1,2014-10-04T06:00:00Z,26.4679,-82.0631,1.87,6.21,1111122 
SCCF RECON,ioos:station:SCCF:11:1,2014-10-04T07:00:00Z,26.4679,-82.0631,1.79,5.87,1111122 
SCCF RECON,ioos:station:SCCF:11:1,2014-10-04T08:00:00Z,26.4679,-82.0631,1.76,5.83,1111122 
SCCF RECON,ioos:station:SCCF:11:1,2014-10-04T09:00:00Z,26.4679,-82.0631,1.801,5.48,1111122 
SCCF RECON,ioos:station:SCCF:11:1,2014-10-04T10:00:00Z,26.4679,-82.0631,1.934,5.63,1111122 
SCCF RECON,ioos:station:SCCF:11:1,2014-10-04T11:00:00Z,26.4679,-82.0631,2.058,5.75,1111122 
SCCF RECON,ioos:station:SCCF:11:1,2014-10-04T12:00:00Z,26.4679,-82.0631,2.08,5.54,1111122 
SCCF RECON,ioos:station:SCCF:11:1,2014-10-04T13:00:00Z,26.4679,-82.0631,2.14,5.84,1111122 
SCCF RECON,ioos:station:SCCF:11:1,2014-10-04T14:00:00Z,26.4679,-82.0631,2.17,5.73,1111122 
SCCF RECON,ioos:station:SCCF:11:1,2014-10-04T15:00:00Z,26.4679,-82.0631,2.15,6.12,1111122 
SCCF RECON,ioos:station:SCCF:11:1,2014-10-04T16:00:00Z,26.4679,-82.0631,2.1,6.82,1111122 
SCCF RECON,ioos:station:SCCF:11:1,2014-10-04T17:00:00Z,26.4679,-82.0631,1.98,6.23,1111122 
SCCF RECON,ioos:station:SCCF:11:1,2014-10-04T18:00:00Z,26.4679,-82.0631,1.828,6.01,1111122 
SCCF RECON,ioos:station:SCCF:11:1,2014-10-04T19:00:00Z,26.4679,-82.0631,1.69,6.1,1111122 
SCCF RECON,ioos:station:SCCF:11:1,2014-10-04T20:00:00Z,26.4679,-82.0631,1.59,6.34,1111122 
SCCF RECON,ioos:station:SCCF:11:1,2014-10-04T21:00:00Z,26.4679,-82.0631,1.54,6.61,1111122 
SCCF RECON,ioos:station:SCCF:11:1,2014-10-04T22:00:00Z,26.4679,-82.0631,1.6,6.5,1111122 
SCCF RECON,ioos:station:SCCF:11:1,2014-10-04T23:00:00Z,26.4679,-82.0631,1.7,6.44,1111122 
SCCF RECON,ioos:station:SCCF:11:1,2014-10-05T00:00:00Z,26.4679,-82.0631,1.8,6.23,1111122 
SCCF RECON,ioos:station:SCCF:11:1,2014-10-05T01:00:00Z,26.4679,-82.0631,1.87,6.09,1111122 
SCCF RECON,ioos:station:SCCF:11:1,2014-10-05T02:00:00Z,26.4679,-82.0631,1.95,5.72,1111122 
SCCF RECON,ioos:station:SCCF:11:1,2014-10-05T03:00:00Z,26.4679,-82.0631,2.03,5.63,1111122 
SCCF RECON,ioos:station:SCCF:11:1,2014-10-05T04:00:00Z,26.4679,-82.0631,2.07,5.41,1111122 
SCCF RECON,ioos:station:SCCF:11:1,2014-10-05T05:00:00Z,26.4679,-82.0631,1.99,5.67,1111122 
SCCF RECON,ioos:station:SCCF:11:1,2014-10-05T06:00:00Z,26.4679,-82.0631,1.85,5.33,1111122 
SCCF RECON,ioos:station:SCCF:11:1,2014-10-05T07:00:00Z,26.4679,-82.0631,1.73,5.03,1111122 
SCCF RECON,ioos:station:SCCF:11:1,2014-10-05T08:00:00Z,26.4679,-82.0631,1.63,4.94,1111122 
SCCF RECON,ioos:station:SCCF:11:1,2014-10-05T09:00:00Z,26.4679,-82.0631,1.57,4.85,1111122 
SCCF RECON,ioos:station:SCCF:11:1,2014-10-05T10:00:00Z,26.4679,-82.0631,1.601,4.84,1111122 
SCCF RECON,ioos:station:SCCF:11:1,2014-10-05T11:00:00Z,26.4679,-82.0631,1.762,5.25,1111122 
SCCF RECON,ioos:station:SCCF:11:1,2014-10-05T12:00:00Z,26.4679,-82.0631,1.91,5.25,1111122 
SCCF RECON,ioos:station:SCCF:11:1,2014-10-05T13:00:00Z,26.4679,-82.0631,2.02,5.33,1111122 
SCCF RECON,ioos:station:SCCF:11:1,2014-10-05T14:00:00Z,26.4679,-82.0631,2.095,5.58,1111122 
SCCF RECON,ioos:station:SCCF:11:1,2014-10-05T15:00:00Z,26.4679,-82.0631,2.15,5.83,1111122 
SCCF RECON,ioos:station:SCCF:11:1,2014-10-05T16:00:00Z,26.4679,-82.0631,2.15,5.98,1111122 
SCCF RECON,ioos:station:SCCF:11:1,2014-10-05T17:00:00Z,26.4679,-82.0631,2.05,6.0,1111122 
SCCF RECON,ioos:station:SCCF:11:1,2014-10-05T18:00:00Z,26.4679,-82.0631,1.897,6.7,1111122 
SCCF RECON,ioos:station:SCCF:11:1,2014-10-05T19:00:00Z,26.4679,-82.0631,1.74,6.95,1111122 
SCCF RECON,ioos:station:SCCF:11:1,2014-10-05T20:00:00Z,26.4679,-82.0631,1.6,7.27,1111122 
SCCF RECON,ioos:station:SCCF:11:1,2014-10-05T21:00:00Z,26.4679,-82.0631,1.49,7.5,1111122 
SCCF RECON,ioos:station:SCCF:11:1,2014-10-05T22:00:00Z,26.4679,-82.0631,1.45,9.11,1111122 
SCCF RECON,ioos:station:SCCF:11:1,2014-10-05T23:00:00Z,26.4679,-82.0631,1.54,7.59,1111122 
SCCF RECON,ioos:station:SCCF:11:1,2014-10-06T00:00:00Z,26.4679,-82.0631,1.7,7.29,1111122 
SCCF RECON,ioos:station:SCCF:11:1,2014-10-06T01:00:00Z,26.4679,-82.0631,1.85,7.16,1111122 
SCCF RECON,ioos:station:SCCF:11:1,2014-10-06T02:00:00Z,26.4679,-82.0631,1.96,6.97,1111122 
SCCF RECON,ioos:station:SCCF:11:1,2014-10-06T03:00:00Z,26.4679,-82.0631,2.06,6.81,1111122 
SCCF RECON,ioos:station:SCCF:11:1,2014-10-06T04:00:00Z,26.4679,-82.0631,2.13,6.46,1111122 
SCCF RECON,ioos:station:SCCF:11:1,2014-10-06T05:00:00Z,26.4679,-82.0631,2.12,6.38,1111122 
SCCF RECON,ioos:station:SCCF:11:1,2014-10-06T06:00:00Z,26.4679,-82.0631,2.0,6.35,1111122 
SCCF RECON,ioos:station:SCCF:11:1,2014-10-06T07:00:00Z,26.4679,-82.0631,1.86,6.25,1111122 
SCCF RECON,ioos:station:SCCF:11:1,2014-10-06T08:00:00Z,26.4679,-82.0631,1.72,5.99,1111122 
SCCF RECON,ioos:station:SCCF:11:1,2014-10-06T09:00:00Z,26.4679,-82.0631,1.61,5.86,1111122 
SCCF RECON,ioos:station:SCCF:11:1,2014-10-06T10:00:00Z,26.4679,-82.0631,1.55,5.67,1111122 
SCCF RECON,ioos:station:SCCF:11:1,2014-10-06T11:00:00Z,26.4679,-82.0631,1.607,5.68,1111122 
SCCF RECON,ioos:station:SCCF:11:1,2014-10-06T12:00:00Z,26.4679,-82.0631,1.77,6.06,1111122 
SCCF RECON,ioos:station:SCCF:11:1,2014-10-06T13:00:00Z,26.4679,-82.0631,1.96,6.1,1111122 
SCCF RECON,ioos:station:SCCF:11:1,2014-10-06T14:00:00Z,26.4679,-82.0631,2.09,6.04,1111122 
SCCF RECON,ioos:station:SCCF:11:1,2014-10-06T15:00:00Z,26.4679,-82.0631,2.2,6.24,1111122 
SCCF RECON,ioos:station:SCCF:11:1,2014-10-06T16:00:00Z,26.4679,-82.0631,2.26,6.21,1111122 
SCCF RECON,ioos:station:SCCF:11:1,2014-10-06T17:00:00Z,26.4679,-82.0631,2.24,6.21,1111122 
SCCF RECON,ioos:station:SCCF:11:1,2014-10-06T18:00:00Z,26.4679,-82.0631,2.17,6.57,1111122 
SCCF RECON,ioos:station:SCCF:11:1,2014-10-06T19:00:00Z,26.4679,-82.0631,2.01,7.01,1111122 
SCCF RECON,ioos:station:SCCF:11:1,2014-10-06T20:00:00Z,26.4679,-82.0631,1.86,7.25,1111122 
SCCF RECON,ioos:station:SCCF:11:1,2014-10-06T21:00:00Z,26.4679,-82.0631,1.75,7.65,1111122 
SCCF RECON,ioos:station:SCCF:11:1,2014-10-06T22:00:00Z,26.4679,-82.0631,1.66,7.89,1111122 
SCCF RECON,ioos:station:SCCF:11:1,2014-10-06T23:00:00Z,26.4679,-82.0631,1.65,7.92,1111122 
SCCF RECON,ioos:station:SCCF:11:1,2014-10-07T00:00:00Z,26.4679,-82.0631,1.75,8.23,1111122 
SCCF RECON,ioos:station:SCCF:11:1,2014-10-07T01:00:00Z,26.4679,-82.0631,1.95,7.05,1111122 
SCCF RECON,ioos:station:SCCF:11:1,2014-10-07T02:00:00Z,26.4679,-82.0631,2.1,7.62,1111122 
SCCF RECON,ioos:station:SCCF:11:1,2014-10-07T03:00:00Z,26.4679,-82.0631,2.22,7.31,1111122 
SCCF RECON,ioos:station:SCCF:11:1,2014-10-07T04:00:00Z,26.4679,-82.0631,2.29,6.71,1111122 
SCCF RECON,ioos:station:SCCF:11:1,2014-10-07T05:00:00Z,26.4679,-82.0631,2.28,6.55,1111122 
SCCF RECON,ioos:station:SCCF:11:1,2014-10-07T06:00:00Z,26.4679,-82.0631,2.19,6.83,1111122 
SCCF RECON,ioos:station:SCCF:11:1,2014-10-07T07:00:00Z,26.4679,-82.0631,2.03,6.49,1111122 
SCCF RECON,ioos:station:SCCF:11:1,2014-10-07T08:00:00Z,26.4679,-82.0631,1.86,6.22,1111122 
SCCF RECON,ioos:station:SCCF:11:1,2014-10-07T09:00:00Z,26.4679,-82.0631,1.73,5.93,1111122 
SCCF RECON,ioos:station:SCCF:11:1,2014-10-07T10:00:00Z,26.4679,-82.0631,1.62,5.8,1111122 
SCCF RECON,ioos:station:SCCF:11:1,2014-10-07T11:00:00Z,26.4679,-82.0631,1.56,5.46,1111122 
SCCF RECON,ioos:station:SCCF:11:1,2014-10-07T12:00:00Z,26.4679,-82.0631,1.63,5.25,1111122 
SCCF RECON,ioos:station:SCCF:11:1,2014-10-07T13:00:00Z,26.4679,-82.0631,1.855,5.76,1111122 
SCCF RECON,ioos:station:SCCF:11:1,2014-10-07T14:00:00Z,26.4679,-82.0631,2.03,6.14,1111122 
SCCF RECON,ioos:station:SCCF:11:1,2014-10-07T15:00:00Z,26.4679,-82.0631,2.14,6.07,1111122 
SCCF RECON,ioos:station:SCCF:11:1,2014-10-07T16:00:00Z,26.4679,-82.0631,2.24,6.21,1111122 
SCCF RECON,ioos:station:SCCF:11:1,2014-10-07T17:00:00Z,26.4679,-82.0631,2.29,6.07,1111122 
SCCF RECON,ioos:station:SCCF:11:1,2014-10-07T18:00:00Z,26.4679,-82.0631,2.28,6.13,1111122 
SCCF RECON,ioos:station:SCCF:11:1,2014-10-07T19:00:00Z,26.4679,-82.0631,2.164,6.62,1111122 
SCCF RECON,ioos:station:SCCF:11:1,2014-10-07T20:00:00Z,26.4679,-82.0631,1.99,6.5,1111122 
SCCF RECON,ioos:station:SCCF:11:1,2014-10-07T21:00:00Z,26.4679,-82.0631,1.888,6.39,1111122 
SCCF RECON,ioos:station:SCCF:11:1,2014-10-07T22:00:00Z,26.4679,-82.0631,1.77,6.36,1111122 
SCCF RECON,ioos:station:SCCF:11:1,2014-10-07T23:00:00Z,26.4679,-82.0631,1.66,6.11,1111122 
SCCF RECON,ioos:station:SCCF:11:1,2014-10-08T00:00:00Z,26.4679,-82.0631,1.632,6.01,1111122 
SCCF RECON,ioos:station:SCCF:11:1,2014-10-08T01:00:00Z,26.4679,-82.0631,1.78,5.85,1111122 
SCCF RECON,ioos:station:SCCF:11:1,2014-10-08T02:00:00Z,26.4679,-82.0631,1.968,6.19,1111122 
SCCF RECON,ioos:station:SCCF:11:1,2014-10-08T03:00:00Z,26.4679,-82.0631,2.1,6.18,1111122 
SCCF RECON,ioos:station:SCCF:11:1,2014-10-08T04:00:00Z,26.4679,-82.0631,2.2,6.23,1111122 
SCCF RECON,ioos:station:SCCF:11:1,2014-10-08T05:00:00Z,26.4679,-82.0631,2.26,6.24,1111122 
SCCF RECON,ioos:station:SCCF:11:1,2014-10-08T06:00:00Z,26.4679,-82.0631,2.25,5.8,1111122 
SCCF RECON,ioos:station:SCCF:11:1,2014-10-08T07:00:00Z,26.4679,-82.0631,2.138,5.74,1111122 
SCCF RECON,ioos:station:SCCF:11:1,2014-10-08T08:00:00Z,26.4679,-82.0631,1.96,5.12,1111122 
SCCF RECON,ioos:station:SCCF:11:1,2014-10-08T09:00:00Z,26.4679,-82.0631,1.81,5.0,1111122 
SCCF RECON,ioos:station:SCCF:11:1,2014-10-08T10:00:00Z,26.4679,-82.0631,1.678,4.7,1111122 
SCCF RECON,ioos:station:SCCF:11:1,2014-10-08T11:00:00Z,26.4679,-82.0631,1.55,4.44,1111122 
SCCF RECON,ioos:station:SCCF:11:1,2014-10-08T12:00:00Z,26.4679,-82.0631,1.46,4.19,1111122 
SCCF RECON,ioos:station:SCCF:11:1,2014-10-08T13:00:00Z,26.4679,-82.0631,1.509,4.52,1111122 
SCCF RECON,ioos:station:SCCF:11:1,2014-10-08T14:00:00Z,26.4679,-82.0631,1.71,5.01,1111122 
SCCF RECON,ioos:station:SCCF:11:1,2014-10-08T15:00:00Z,26.4679,-82.0631,1.91,5.64,1111122 
SCCF RECON,ioos:station:SCCF:11:1,2014-10-08T16:00:00Z,26.4679,-82.0631,2.06,5.72,1111122 
SCCF RECON,ioos:station:SCCF:11:1,2014-10-08T17:00:00Z,26.4679,-82.0631,2.18,5.74,1111122 
SCCF RECON,ioos:station:SCCF:11:1,2014-10-08T18:00:00Z,26.4679,-82.0631,2.25,6.18,1111122 
SCCF RECON,ioos:station:SCCF:11:1,2014-10-08T19:00:00Z,26.4679,-82.0631,2.19,6.37,1111122 
SCCF RECON,ioos:station:SCCF:11:1,2014-10-08T20:00:00Z,26.4679,-82.0631,2.07,7.37,1111122 
SCCF RECON,ioos:station:SCCF:11:1,2014-10-08T21:00:00Z,26.4679,-82.0631,1.92,7.0,1111122 
SCCF RECON,ioos:station:SCCF:11:1,2014-10-08T22:00:00Z,26.4679,-82.0631,1.79,6.99,1111122 
SCCF RECON,ioos:station:SCCF:11:1,2014-10-08T23:00:00Z,26.4679,-82.0631,1.7,6.73,1111122 
SCCF RECON,ioos:station:SCCF:11:1,2014-10-09T00:00:00Z,26.4679,-82.0631,1.65,6.64,1111122 
SCCF RECON,ioos:station:SCCF:11:1,2014-10-09T01:00:00Z,26.4679,-82.0631,1.68,6.3,1111122 
SCCF RECON,ioos:station:SCCF:11:1,2014-10-09T02:00:00Z,26.4679,-82.0631,1.85,6.4,1111122 
SCCF RECON,ioos:station:SCCF:11:1,2014-10-09T03:00:00Z,26.4679,-82.0631,2.036,6.36,1111122 
SCCF RECON,ioos:station:SCCF:11:1,2014-10-09T04:00:00Z,26.4679,-82.0631,2.15,6.29,1111122 
SCCF RECON,ioos:station:SCCF:11:1,2014-10-09T05:00:00Z,26.4679,-82.0631,2.23,6.49,1111122 
SCCF RECON,ioos:station:SCCF:11:1,2014-10-09T06:00:00Z,26.4679,-82.0631,2.27,6.28,1111122 
SCCF RECON,ioos:station:SCCF:11:1,2014-10-09T07:00:00Z,26.4679,-82.0631,2.2,6.25,1111122 
SCCF RECON,ioos:station:SCCF:11:1,2014-10-09T08:00:00Z,26.4679,-82.0631,2.04,5.83,1111122 
SCCF RECON,ioos:station:SCCF:11:1,2014-10-09T09:00:00Z,26.4679,-82.0631,1.86,5.3,1111122 
SCCF RECON,ioos:station:SCCF:11:1,2014-10-09T10:00:00Z,26.4679,-82.0631,1.7,4.97,1111122 
SCCF RECON,ioos:station:SCCF:11:1,2014-10-09T11:00:00Z,26.4679,-82.0631,1.56,4.7,1111122 
SCCF RECON,ioos:station:SCCF:11:1,2014-10-09T12:00:00Z,26.4679,-82.0631,1.446,4.47,1111122 
SCCF RECON,ioos:station:SCCF:11:1,2014-10-09T13:00:00Z,26.4679,-82.0631,1.39,4.41,1111122 
SCCF RECON,ioos:station:SCCF:11:1,2014-10-09T14:00:00Z,26.4679,-82.0631,1.47,4.93,1111122 
SCCF RECON,ioos:station:SCCF:11:1,2014-10-09T15:00:00Z,26.4679,-82.0631,1.72,6.09,1111122 
SCCF RECON,ioos:station:SCCF:11:1,2014-10-09T16:00:00Z,26.4679,-82.0631,1.9,6.11,1111122 
SCCF RECON,ioos:station:SCCF:11:1,2014-10-09T17:00:00Z,26.4679,-82.0631,2.02,6.85,1111122 
SCCF RECON,ioos:station:SCCF:11:1,2014-10-09T18:00:00Z,26.4679,-82.0631,2.11,6.39,1111122 
SCCF RECON,ioos:station:SCCF:11:1,2014-10-09T19:00:00Z,26.4679,-82.0631,2.15,6.45,1111122 
SCCF RECON,ioos:station:SCCF:11:1,2014-10-09T20:00:00Z,26.4679,-82.0631,2.12,6.85,1111122 
SCCF RECON,ioos:station:SCCF:11:1,2014-10-09T21:00:00Z,26.4679,-82.0631,2.01,7.8,1111122 
SCCF RECON,ioos:station:SCCF:11:1,2014-10-09T22:00:00Z,26.4679,-82.0631,1.89,7.58,1111122 
SCCF RECON,ioos:station:SCCF:11:1,2014-10-09T23:00:00Z,26.4679,-82.0631,1.81,7.46,1111122 
SCCF RECON,ioos:station:SCCF:11:1,2014-10-10T00:00:00Z,26.4679,-82.0631,1.72,7.37,1111122 
SCCF RECON,ioos:station:SCCF:11:1,2014-10-10T01:00:00Z,26.4679,-82.0631,1.7,7.12,1111122 
SCCF RECON,ioos:station:SCCF:11:1,2014-10-10T02:00:00Z,26.4679,-82.0631,1.766,6.63,1111122 
SCCF RECON,ioos:station:SCCF:11:1,2014-10-10T03:00:00Z,26.4679,-82.0631,1.937,7.16,1111122 
SCCF RECON,ioos:station:SCCF:11:1,2014-10-10T04:00:00Z,26.4679,-82.0631,2.08,7.04,1111122 
SCCF RECON,ioos:station:SCCF:11:1,2014-10-10T05:00:00Z,26.4679,-82.0631,2.18,6.69,1111122 
SCCF RECON,ioos:station:SCCF:11:1,2014-10-10T06:00:00Z,26.4679,-82.0631,2.23,6.77,1111122 
SCCF RECON,ioos:station:SCCF:11:1,2014-10-10T07:00:00Z,26.4679,-82.0631,2.23,6.7,1111122 
SCCF RECON,ioos:station:SCCF:11:1,2014-10-10T08:00:00Z,26.4679,-82.0631,2.14,6.4,1111122 
SCCF RECON,ioos:station:SCCF:11:1,2014-10-10T09:00:00Z,26.4679,-82.0631,2.01,5.79,1111122 
SCCF RECON,ioos:station:SCCF:11:1,2014-10-10T10:00:00Z,26.4679,-82.0631,1.86,5.61,1111122 
SCCF RECON,ioos:station:SCCF:11:1,2014-10-10T11:00:00Z,26.4679,-82.0631,1.72,5.42,1111122 
SCCF RECON,ioos:station:SCCF:11:1,2014-10-10T12:00:00Z,26.4679,-82.0631,1.59,5.23,1111122 
SCCF RECON,ioos:station:SCCF:11:1,2014-10-10T13:00:00Z,26.4679,-82.0631,1.477,5.02,1111122 
SCCF RECON,ioos:station:SCCF:11:1,2014-10-10T14:00:00Z,26.4679,-82.0631,1.43,5.1,1111122 
SCCF RECON,ioos:station:SCCF:11:1,2014-10-10T15:00:00Z,26.4679,-82.0631,1.5,5.82,1111122 
SCCF RECON,ioos:station:SCCF:11:1,2014-10-10T16:00:00Z,26.4679,-82.0631,1.67,6.92,1111122 
SCCF RECON,ioos:station:SCCF:11:1,2014-10-10T17:00:00Z,26.4679,-82.0631,1.83,6.73,1111122 
SCCF RECON,ioos:station:SCCF:11:1,2014-10-10T18:00:00Z,26.4679,-82.0631,1.95,7.37,1111122 
SCCF RECON,ioos:station:SCCF:11:1,2014-10-10T19:00:00Z,26.4679,-82.0631,2.03,6.99,1111122 
SCCF RECON,ioos:station:SCCF:11:1,2014-10-10T20:00:00Z,26.4679,-82.0631,2.09,7.6,1111122 
SCCF RECON,ioos:station:SCCF:11:1,2014-10-10T21:00:00Z,26.4679,-82.0631,2.081,7.25,1111122 
SCCF RECON,ioos:station:SCCF:11:1,2014-10-10T22:00:00Z,26.4679,-82.0631,2.04,8.98,1111122 
SCCF RECON,ioos:station:SCCF:11:1,2014-10-10T23:00:00Z,26.4679,-82.0631,1.95,8.3,1111122 
SCCF RECON,ioos:station:SCCF:11:1,2014-10-11T00:00:00Z,26.4679,-82.0631,1.87,7.73,1111122 
SCCF RECON,ioos:station:SCCF:11:1,2014-10-11T01:00:00Z,26.4679,-82.0631,1.81,7.68,1111122 
SCCF RECON,ioos:station:SCCF:11:1,2014-10-11T02:00:00Z,26.4679,-82.0631,1.8,7.44,1111122 
SCCF RECON,ioos:station:SCCF:11:1,2014-10-11T03:00:00Z,26.4679,-82.0631,1.85,6.6,1111122 
SCCF RECON,ioos:station:SCCF:11:1,2014-10-11T04:00:00Z,26.4679,-82.0631,1.97,7.11,1111122 
SCCF RECON,ioos:station:SCCF:11:1,2014-10-11T05:00:00Z,26.4679,-82.0631,2.09,7.08,1111122 
SCCF RECON,ioos:station:SCCF:11:1,2014-10-11T06:00:00Z,26.4679,-82.0631,2.19,6.62,1111122 
SCCF RECON,ioos:station:SCCF:11:1,2014-10-11T07:00:00Z,26.4679,-82.0631,2.24,6.63,1111122 
SCCF RECON,ioos:station:SCCF:11:1,2014-10-11T08:00:00Z,26.4679,-82.0631,2.24,6.54,1111122 
SCCF RECON,ioos:station:SCCF:11:1,2014-10-11T09:00:00Z,26.4679,-82.0631,2.17,6.23,1111122 
SCCF RECON,ioos:station:SCCF:11:1,2014-10-11T10:00:00Z,26.4679,-82.0631,2.05,5.94,1111122 
SCCF RECON,ioos:station:SCCF:11:1,2014-10-11T11:00:00Z,26.4679,-82.0631,1.9,5.68,1111122 
SCCF RECON,ioos:station:SCCF:11:1,2014-10-11T12:00:00Z,26.4679,-82.0631,1.72,5.51,1111122 
SCCF RECON,ioos:station:SCCF:11:1,2014-10-11T13:00:00Z,26.4679,-82.0631,1.61,5.3,1111122 
SCCF RECON,ioos:station:SCCF:11:1,2014-10-11T14:00:00Z,26.4679,-82.0631,1.52,5.38,1111122 
SCCF RECON,ioos:station:SCCF:11:1,2014-10-11T15:00:00Z,26.4679,-82.0631,1.52,5.73,1111122 
SCCF RECON,ioos:station:SCCF:11:1,2014-10-11T16:00:00Z,26.4679,-82.0631,1.61,6.04,1111122 
SCCF RECON,ioos:station:SCCF:11:1,2014-10-11T17:00:00Z,26.4679,-82.0631,1.76,7.5,1111122 
SCCF RECON,ioos:station:SCCF:11:1,2014-10-11T18:00:00Z,26.4679,-82.0631,1.88,6.84,1111122 
SCCF RECON,ioos:station:SCCF:11:1,2014-10-11T19:00:00Z,26.4679,-82.0631,1.98,7.04,1111122 
SCCF RECON,ioos:station:SCCF:11:1,2014-10-11T20:00:00Z,26.4679,-82.0631,2.05,6.74,1111122 
SCCF RECON,ioos:station:SCCF:11:1,2014-10-11T21:00:00Z,26.4679,-82.0631,2.09,6.94,1111122 